Date,TemperatureHighF,TemperatureAvgF,TemperatureLowF,DewpointHighF,DewpointAvgF,DewpointLowF,HumidityHigh,HumidityAvg,HumidityLow,PressureMaxIn,PressureMinIn,WindSpeedMaxMPH,WindSpeedAvgMPH,GustSpeedMaxMPH,PrecipitationSumIn
2013-9-1,83.6,70.7,66.6,71.1,67.5,65.7,97,91,60,29.83,29.72,6,0,0,0.34
2013-9-2,84.5,72.9,67.1,70.5,68.3,65.9,98,87,60,29.85,29.74,6,0,0,0.00
2013-9-3,82.4,69.4,61.2,69.4,64.6,59.0,98,87,48,29.95,29.76,7,0,7,0.42
2013-9-4,85.5,66.3,57.0,64.1,59.2,54.0,99,82,37,30.07,29.94,5,0,0,0.01
2013-9-5,84.7,66.3,55.9,67.0,59.5,55.1,98,82,43,30.11,30.02,4,0,0,0.00
2013-9-6,85.7,67.8,56.9,66.4,60.1,56.1,98,80,39,30.13,29.99,5,0,0,0.00
2013-9-7,84.3,68.4,57.8,67.1,61.4,57.0,98,81,47,30.05,29.92,6,0,0,0.00
2013-9-8,87.4,70.5,61.8,68.4,64.1,60.9,98,83,46,29.94,29.86,4,0,0,0.00
2013-9-9,89.7,73.1,63.2,71.7,65.5,62.3,98,80,42,30.03,29.92,6,0,0,0.01
2013-9-10,90.5,74.0,63.7,70.7,66.1,62.5,97,80,41,30.15,30.02,6,0,0,0.00
2013-9-11,89.0,74.0,66.0,69.9,67.1,63.4,97,81,45,30.13,30.00,7,0,0,0.00
2013-9-12,83.6,69.6,64.8,72.9,67.0,63.6,98,92,65,30.00,29.79,9,0,9,1.06
2013-9-13,74.9,65.3,56.0,64.4,56.4,43.3,98,76,36,29.91,29.77,9,1,9,0.01
2013-9-14,77.7,58.7,48.6,55.9,48.4,40.4,95,73,28,30.05,29.91,10,0,10,0.00
2013-9-15,61.6,52.9,51.3,55.3,51.6,50.0,98,95,79,30.14,30.03,3,0,6,0.00
2013-9-16,74.4,63.6,56.3,63.4,59.0,55.2,98,86,66,30.12,30.03,4,0,1,0.00
2013-9-17,79.2,64.6,56.6,59.3,54.8,50.6,90,72,47,30.18,30.07,11,1,0,0.00
2013-9-18,65.0,59.9,55.9,60.9,56.3,52.1,98,88,74,30.16,30.09,6,0,0,0.22
2013-9-19,76.8,65.6,61.0,67.4,62.9,60.4,98,92,67,30.10,29.99,5,0,0,0.01
2013-9-20,82.4,67.6,59.2,68.3,62.9,58.6,99,87,55,30.01,29.80,5,0,0,0.01
2013-9-21,65.5,62.7,59.2,64.9,61.8,57.9,98,97,95,29.81,29.67,5,0,0,0.86
2013-9-22,74.0,58.9,50.1,57.9,53.5,49.4,99,85,45,29.90,29.73,5,0,0,0.01
2013-9-23,79.0,58.0,49.1,61.4,53.1,48.3,98,86,46,29.98,29.86,4,0,7,0.00
2013-9-24,80.3,63.3,53.5,61.2,56.4,52.7,98,82,44,30.01,29.82,7,0,7,0.00
2013-9-25,61.8,60.8,59.3,59.3,58.4,57.4,96,92,87,29.83,29.76,4,0,4,0.02
2013-9-26,77.2,63.5,58.3,60.5,58.3,54.3,98,85,48,29.98,29.81,3,0,3,0.03
2013-9-27,80.9,62.2,51.6,61.3,55.1,50.8,98,81,39,30.09,29.96,6,0,0,0.01
2013-9-28,78.3,61.5,52.2,58.7,54.8,51.1,97,81,42,30.17,30.04,5,0,0,0.00
2013-9-29,72.5,60.5,52.9,59.7,55.0,50.5,96,83,54,30.09,29.95,5,0,0,0.00
2013-9-30,74.2,61.7,55.1,60.6,57.2,53.7,98,86,54,30.02,29.91,4,0,0,0.00